Tracking 18980 objects as of 21-Feb-2018
HD Live streaming from Space Station
objects crossing your sky now

NOAA 16 DEB

Track NOAA 16 DEB now!
10-day predictions


NORAD ID: 41095
Int'l Code: 2000-055BE
Perigee: 769.7 km
Apogee: 846.2 km
Inclination: 99.0 °
Period: 100.9 minutes
Semi major axis: 7178 km
RCS: Unknown
Launch date: September 21, 2000
Source: United States (US)
Launch site: AIR FORCE WESTERN TEST RANGE (AFWTR)

Note: This is SATELLITE DEBRIS
aabbcc
Your satellite tracking list
Your tracking list is empty




NASA's NSSDC Master Catalog

Two Line Element Set (TLE):
1 41095U 00055BE  18051.11078731  .00002029  00000-0  83592-3 0  9995
2 41095  98.9878 153.0697 0053267 275.1229  84.3872 14.27285813115642
Source of the keplerian elements: AFSPC